ATLAS CENTAUR 2 1 00694U 63047A 25346.93645723 .00004197 00000+0 50610-3 0 9993 2 00694 30.3548 320.3591 0548902 35.9090 327.7154 14.11761157119353 THOR AGENA D R/B 1 00733U 64002A 25347.00149036 .00000402 00000+0 16062-3 0 9992 2 00733 99.1218 350.6343 0033368 149.4627 210.8507 14.33959985225878 SL-3 R/B 1 00877U 64053B 25346.98302547 .00000488 00000+0 11930-3 0 9994 2 00877 65.0764 225.4205 0073883 320.2743 39.2958 14.61276391254122 SL-8 R/B 1 02802U 67045B 25346.93116977 .00000756 00000+0 21658-3 0 9999 2 02802 74.0098 150.1054 0064289 179.3772 180.7478 14.45537425 76483 SL-8 R/B 1 03230U 68040B 25346.97327213 .00005257 00000+0 39570-3 0 9995 2 03230 74.0302 130.7825 0025499 332.2548 27.7277 15.02530148 76989 OAO 2 1 03597U 68110A 25346.85686495 .00000472 00000+0 13258-3 0 9995 2 03597 34.9946 30.0056 0005907 225.3971 134.6238 14.47244668 6510 ISIS 1 1 03669U 69009A 25346.79426342 .00000350 00000+0 25464-3 0 9996 2 03669 88.4484 164.7904 1706869 264.5869 75.9055 11.30354601338717 SERT 2 1 04327U 70009A 25346.80545605 .00000066 00000+0 14623-3 0 9995 2 04327 99.2649 289.7023 0005417 34.3034 19.4263 13.58717680768093 SL-3 R/B 1 05118U 71028B 25346.93309895 .00039435 00000+0 59284-3 0 9993 2 05118 81.2373 158.6133 0019316 239.9006 120.0329 15.54455492975166 ASTEX 1 1 05560U 71089A 25346.91191576 .00000911 00000+0 23215-3 0 9996 2 05560 92.7139 123.6747 0016398 25.3996 334.8013 14.50643161849723 SL-8 R/B 1 05730U 71119B 25346.96559408 .00016579 00000+0 86340-3 0 9991 2 05730 73.8889 337.5722 0559294 321.7896 34.4812 14.35735682643031 OAO 3 (COPERNICUS) 1 06153U 72065A 25346.97061539 .00000642 00000+0 13625-3 0 9996 2 06153 35.0062 71.3504 0006469 176.4169 349.9261 14.59906859833512 ATLAS CENTAUR R/B 1 06155U 72065B 25346.99762733 .00002311 00000+0 31973-3 0 9995 2 06155 35.0013 93.6861 0033912 359.7472 0.3207 14.77411114828437 SL-8 R/B 1 08459U 75112B 25346.96969042 .00000439 00000+0 15304-3 0 9998 2 08459 74.0591 178.4353 0016603 289.7533 70.1830 14.38145321619409 SL-3 R/B 1 10114U 77057B 25347.01546637 .00016527 00000+0 37706-3 0 9992 2 10114 97.5685 150.3540 0006513 231.5491 128.5172 15.42953869654954 SEASAT 1 1 10967U 78064A 25346.82064302 .00000705 00000+0 23585-3 0 9990 2 10967 108.0116 303.2036 0001626 250.4919 109.6051 14.46062090493958 SL-14 R/B 1 11267U 79011B 25346.98926744 .00000917 00000+0 88372-4 0 9992 2 11267 82.5234 178.8077 0015885 352.6430 7.4554 14.91770034515856 SL-8 R/B 1 11574U 79089B 25346.90564883 .00000448 00000+0 14360-3 0 9996 2 11574 74.0692 251.6721 0014475 85.9533 274.3278 14.42284030423590 SL-14 R/B 1 11672U 80005B 25346.87829304 .00000846 00000+0 83281-4 0 9994 2 11672 82.5149 29.5680 0017363 93.0398 267.2808 14.90792093463550 SL-8 R/B 1 12139U 81003B 25346.53847679 .00020820 00000+0 55166-3 0 9994 2 12139 82.9303 10.3887 0279665 120.9181 241.9866 15.07028350301536 SL-3 R/B 1 12465U 81046B 25346.95436816 .00015060 00000+0 37903-3 0 9995 2 12465 81.2333 33.6812 0018817 323.6428 36.3534 15.39611978425078 SL-3 R/B 1 12904U 81103B 25346.98914217 .00009263 00000+0 42521-3 0 9996 2 12904 81.1592 315.0618 0011717 212.0547 147.9973 15.20237569960056 SL-3 R/B 1 13068U 82013B 25347.03812137 .00007268 00000+0 32324-3 0 9997 2 13068 81.1749 262.2603 0024063 109.8714 250.5114 15.21090867391174 SL-3 R/B 1 13154U 82039B 25346.97073255 .00004606 00000+0 28295-3 0 9998 2 13154 81.1720 315.8316 0029664 251.5666 108.2334 15.09528482368552 SL-3 R/B 1 13403U 82079B 25346.94361732 .00009360 00000+0 38604-3 0 9993 2 13403 81.1467 295.4206 0027118 98.4245 262.0064 15.23591447364485 SL-14 R/B 1 13553U 82092B 25346.74843606 .00000774 00000+0 84358-4 0 9995 2 13553 82.5684 222.7039 0019150 226.9901 197.2829 14.86555941316019 SL-3 R/B 1 13819U 83010B 25346.90170012 .00019382 00000+0 42966-3 0 9996 2 13819 81.1029 108.4205 0017193 350.6349 9.4571 15.43461775344545 SL-3 R/B 1 14208U 83075B 25346.98271070 .00014232 00000+0 40292-3 0 9993 2 14208 97.6109 343.4744 0022795 174.4968 185.6531 15.36141777316834 COSMOS 1536 1 14699U 84013A 25347.00350661 .00008561 00000+0 36704-3 0 9999 2 14699 82.5453 193.9027 0013490 224.5432 135.4721 15.22522975259423 SL-14 R/B 1 14820U 84027B 25347.02691744 .00000837 00000+0 93140-4 0 9998 2 14820 82.5413 326.2867 0016382 259.7471 100.1898 14.85874934234761 SL-8 R/B 1 15483U 85006B 25346.98165075 .00000383 00000+0 13576-3 0 9999 2 15483 74.0467 60.6900 0018709 352.8438 179.7764 14.37721479141563 SL-12 R/B(2) 1 15772U 85042D 25347.03066068 .00000125 00000+0 77603-4 0 9995 2 15772 71.1085 270.8052 0037617 261.0584 177.1999 14.21952292102070 SL-14 R/B 1 15945U 85069B 25346.83612241 .00000947 00000+0 10440-3 0 9990 2 15945 82.5268 106.6123 0020148 118.1903 242.1352 14.86324974159938 SL-16 R/B 1 16182U 85097B 25346.99038750 .00000334 00000+0 19118-3 0 9990 2 16182 71.0033 323.0752 0006677 10.6271 45.5885 14.16584274 74951 SL-14 R/B 1 16496U 86006B 25346.96916165 .00000983 00000+0 10224-3 0 9990 2 16496 82.5264 341.3352 0076185 199.0498 160.7868 14.86672370136328 COSMOS 1743 1 16719U 86034A 25346.97677656 .00038194 00000+0 62869-3 0 9996 2 16719 82.5343 164.3459 0004701 252.2840 107.7900 15.52159558166775 SL-14 R/B 1 16792U 86046B 25346.98398582 .00000835 00000+0 93554-4 0 9996 2 16792 82.4810 162.0835 0023815 151.4489 208.8037 14.85485120113535 SL-14 R/B 1 16882U 86055B 25346.99337112 .00000717 00000+0 80091-4 0 9990 2 16882 82.5203 208.1346 0017477 258.5076 222.4206 14.85531352106495 AJISAI (EGS) 1 16908U 86061A 25347.01092103 -.00000086 00000+0 77907-4 0 9990 2 16908 50.0113 359.8833 0011292 66.5740 123.6113 12.44514291457206 COSMOS 1812 1 17295U 87003A 25346.92098212 .00127296 00000+0 82686-3 0 9994 2 17295 82.4866 291.8204 0007210 86.9311 273.2779 15.75550147130689 SL-14 R/B 1 17567U 87024B 25346.98148981 .00000764 00000+0 84361-4 0 9997 2 17567 82.5274 174.2274 0018091 183.3828 176.7269 14.86023971 75253 COSMOS 1833 1 17589U 87027A 25346.85936646 .00000170 00000+0 11651-3 0 9995 2 17589 70.9138 148.5258 0022533 331.5529 28.4360 14.13021554998045 SL-16 R/B 1 17590U 87027B 25346.73187158 .00000037 00000+0 42207-4 0 9994 2 17590 71.0029 99.7346 0007404 259.4131 100.6159 14.17152154 3029 SL-14 R/B 1 17912U 87038B 25346.79716630 .00000673 00000+0 75333-4 0 9995 2 17912 82.5017 18.6470 0020879 91.8588 268.5020 14.85261324 66333 COSMOS 1844 1 17973U 87041A 25346.98628736 -.00000026 00000+0 11794-4 0 9990 2 17973 70.8974 217.0518 0030072 156.7405 203.5086 14.14526116991327 SL-14 R/B 1 18153U 87055B 25346.72166971 .00000818 00000+0 91663-4 0 9997 2 18153 82.5002 71.0056 0019410 303.3975 56.5383 14.85521581 57025 COSMOS 1867 1 18187U 87060A 25346.95217717 -.00000008 00000+0 34719-4 0 9991 2 18187 65.0091 189.6079 0013632 271.1329 88.8194 14.31486094 7520 SL-14 R/B 1 18749U 88001B 25346.98071191 .00000795 00000+0 89282-4 0 9995 2 18749 82.5133 276.9205 0018504 160.3247 199.8687 14.85424465 29153 COSMOS 1933 1 18958U 88020A 25347.01671721 .00005902 00000+0 29624-3 0 9996 2 18958 82.5133 336.6053 0005791 125.8036 234.3737 15.17110816 37086 SL-3 R/B 1 19046U 88032B 25346.99329950 .00007083 00000+0 34108-3 0 9993 2 19046 97.5081 325.7121 0026766 171.9900 188.1767 15.18746500 38946 SL-16 R/B 1 19120U 88039B 25347.02884077 -.00000078 00000+0 -14263-4 0 9994 2 19120 71.0149 251.7873 0019685 115.8474 244.4684 14.19596900946082 COSMOS 1953 1 19210U 88050A 25346.96650577 .00007993 00000+0 30017-3 0 9990 2 19210 82.5091 245.3539 0013746 70.7581 289.5143 15.26941939 24546 SL-8 R/B 1 19257U 88053B 25346.95999714 .00000415 00000+0 14311-3 0 9993 2 19257 74.0479 272.3135 0018988 116.4568 318.3179 14.38859446964121 COSMOS 1975 1 19573U 88093A 25346.97755533 .00010322 00000+0 39358-3 0 9995 2 19573 82.5202 204.5908 0012885 111.5763 248.6850 15.26475436 6172 SL-14 R/B 1 19574U 88093B 25346.92071608 .00000841 00000+0 94250-4 0 9993 2 19574 82.5304 123.4973 0019964 328.7818 150.5056 14.85549477988152 SL-16 R/B 1 19650U 88102B 25347.02353359 .00000035 00000+0 42043-4 0 9995 2 19650 70.9998 333.8458 0012971 151.4278 208.7558 14.16136380914627 INTERCOSMOS 24 1 20261U 89080A 25346.98262104 .00001392 00000+0 40289-3 0 9998 2 20261 82.6045 160.7950 1188839 133.9571 236.6039 12.59440790655885 SL-14 R/B 1 20262U 89080C 25346.74433081 .00000614 00000+0 17980-3 0 9995 2 20262 82.5928 229.0179 1230667 23.5781 341.7075 12.50413896649284 DELTA 1 R/B 1 20323U 89089B 25346.84669122 .00000580 00000+0 15214-3 0 9990 2 20323 97.0752 203.0674 0070099 37.9617 322.6492 14.50572623883149 ARIANE 40 R/B 1 20443U 90005H 25347.01720372 .00000496 00000+0 17160-3 0 9996 2 20443 98.3244 45.1872 0011284 105.0153 255.2285 14.39799094880339 DELTA 2 R/B(1) 1 20453U 90008B 25346.81550225 .00052065 00000+0 83188-3 0 9997 2 20453 35.6074 20.0447 0111471 179.3001 180.7903 15.45218530912648 COSMOS 2058 1 20465U 90010A 25346.89043829 .00007431 00000+0 44953-3 0 9992 2 20465 82.4664 132.8818 0008325 272.3587 87.6689 15.10471839929139 SL-14 R/B 1 20466U 90010B 25347.01525111 .00000708 00000+0 83089-4 0 9991 2 20466 82.5019 348.7882 0018742 222.1890 137.7884 14.83471652915634 SL-14 R/B 1 20511U 90018B 25346.94974353 .00000815 00000+0 99471-4 0 9998 2 20511 82.5210 304.1681 0016978 22.6783 337.5177 14.82047031909732 HST 1 20580U 90037B 25346.98803157 .00010337 00000+0 35884-3 0 9999 2 20580 28.4685 270.7996 0001784 242.3546 117.6868 15.28057436760030 SL-16 R/B 1 20625U 90046B 25346.95798566 -.00000076 00000+0 -14783-4 0 9990 2 20625 70.9990 120.0629 0011830 72.7442 287.4975 14.15001286836120 COSMOS 2084 1 20663U 90055A 25346.96669358 .00004592 00000+0 33240-3 0 9992 2 20663 62.7907 271.2197 0031658 174.6697 185.4747 15.05021515923265 SL-6 R/B(2) 1 20666U 90055D 25346.96691583 .00003318 00000+0 25900-3 0 9999 2 20666 62.7827 188.6439 0012750 309.0905 50.9060 15.03077042925155 SL-8 R/B 1 20775U 90078B 25347.00046134 .00028189 00000+0 87241-3 0 9996 2 20775 82.9052 329.0774 0372019 305.0357 51.6472 14.85953462796415 SL-8 R/B 1 21088U 91006B 25346.75053549 .00000070 00000+0 55050-4 0 9998 2 21088 82.9428 234.7049 0021221 279.8542 139.9016 13.77489918752109 OKEAN-3 1 21397U 91039A 25346.68217978 .00005533 00000+0 39675-3 0 9990 2 21397 82.5170 61.1026 0012941 266.8861 93.0885 15.04117234851956 COSMOS 2151 1 21422U 91042A 25346.95682922 .00002698 00000+0 21640-3 0 9990 2 21422 82.4959 167.2941 0012544 359.3038 0.8166 14.99687526850198 SL-14 R/B 1 21423U 91042B 25346.98459648 .00000705 00000+0 86343-4 0 9990 2 21423 82.4926 301.4932 0017474 161.0006 199.1864 14.81739172840232 ERS-1 1 21574U 91050A 25347.01497903 .00000531 00000+0 18463-3 0 9991 2 21574 98.7906 358.0767 0033012 99.2713 261.2210 14.39364954803267 ARIANE 40 R/B 1 21610U 91050F 25346.99453564 .00000552 00000+0 17800-3 0 9990 2 21610 98.2164 37.4157 0002765 0.2287 359.8904 14.42813716806490 INTERCOSMOS 25 1 21819U 91086A 25346.96562286 .00002301 00000+0 45762-3 0 9991 2 21819 82.6074 2.4398 1486608 303.9092 42.9140 12.11727564486188 SL-8 R/B 1 21876U 92008B 25346.96976527 .00000173 00000+0 16163-3 0 9994 2 21876 82.9265 332.2752 0035174 19.1740 39.7628 13.75958906697497 SL-8 R/B 1 21938U 92020B 25346.90353404 .00000133 00000+0 12204-3 0 9992 2 21938 82.9306 218.1960 0028901 177.6794 192.9848 13.75527227689208 USA 81 1 21949U 92023A 25346.96417338 .00000285 00000+0 98126-4 0 9996 2 21949 85.0081 181.4469 0001403 65.4515 294.6824 14.32327016 82370 COSMOS 2219 1 22219U 92076A 25347.00757810 -.00000002 00000+0 23483-4 0 9995 2 22219 71.0579 199.2731 0019084 326.5145 33.4769 14.14062569706123 SL-16 R/B 1 22220U 92076B 25346.80968097 -.00000053 00000+0 -22802-5 0 9997 2 22220 71.0005 11.3849 0014777 234.0472 298.7438 14.16840891709523 COSMOS 2221 1 22236U 92080A 25347.01854817 .00002780 00000+0 24656-3 0 9991 2 22236 82.5047 2.0587 0016038 120.7471 239.5333 14.95762383767832 SL-16 R/B 1 22285U 92093B 25346.95610854 .00000370 00000+0 21391-3 0 9998 2 22285 71.0201 186.3417 0002174 70.9697 289.1662 14.15429641700888 COSMOS 2228 1 22286U 92094A 25347.02457798 .00003658 00000+0 31711-3 0 9994 2 22286 82.5179 320.2620 0016573 230.3123 129.6638 14.96732760763090 SL-16 R/B 1 22566U 93016B 25346.84650933 -.00000046 00000+0 77456-6 0 9993 2 22566 71.0083 37.5801 0007890 97.3962 262.8058 14.15286957689884 COSMOS 2242 1 22626U 93024A 25346.97016761 .00003500 00000+0 30839-3 0 9996 2 22626 82.5194 349.6247 0014991 233.3195 126.6650 14.96109066767428 SL-16 R/B 1 22803U 93059B 25347.01445190 -.00000123 00000+0 -36898-4 0 9991 2 22803 70.9891 193.9073 0018026 335.2021 24.8235 14.17213699667259 ARIANE 40 R/B 1 22830U 93061H 25346.89759991 .00000417 00000+0 16871-3 0 9998 2 22830 98.5077 52.4247 0010882 175.5650 184.5633 14.32801569681672 COSMOS 2278 1 23087U 94023A 25347.03097430 -.00000163 00000+0 -60291-4 0 9998 2 23087 71.0541 356.4019 0008311 179.2333 180.8804 14.14350460632557 SL-16 R/B 1 23088U 94023B 25346.97558626 .00000015 00000+0 32470-4 0 9992 2 23088 71.0008 252.9905 0001382 25.9218 334.1973 14.15003042633824 SL-16 R/B 1 23343U 94074B 25347.01251615 .00000765 00000+0 10952-3 0 9998 2 23343 97.7203 16.3062 0007567 135.0205 283.2232 14.79290083674433 SL-16 R/B 1 23405U 94077B 25346.99101960 .00000317 00000+0 18638-3 0 9995 2 23405 70.9811 174.8850 0004662 283.9104 76.1500 14.15549964603961 ARIANE 40+ R/B 1 23561U 95021B 25346.81705385 .00000512 00000+0 17744-3 0 9994 2 23561 98.4652 54.4050 0007488 49.8425 68.1245 14.39695655606742 SL-16 R/B 1 23705U 95058B 25346.78170935 .00000045 00000+0 47460-4 0 9997 2 23705 71.0225 2.7162 0014980 255.3925 104.5537 14.15484038555555 SL-16 R/B 1 24298U 96051B 25346.77190813 .00000040 00000+0 48397-4 0 9990 2 24298 70.7594 359.2159 0019402 261.2841 98.6081 14.12396732509377 ORBVIEW 2 (SEASTAR) 1 24883U 97037A 25346.98501027 .00000511 00000+0 19407-3 0 9993 2 24883 98.8457 144.0657 0001645 340.8642 19.2480 14.35417542496030 SL-16 R/B 1 25400U 98043G 25346.86854828 .00000148 00000+0 80966-4 0 9999 2 25400 98.8124 294.6872 0008793 266.3333 93.6841 14.26025723426618 SL-16 R/B 1 25407U 98045B 25346.76470794 -.00000175 00000+0 -64064-4 0 9996 2 25407 71.0118 4.3746 0006926 177.5751 182.5407 14.16175088414791 ISS (ZARYA) 1 25544U 98067A 25346.86355306 .00014033 00000+0 25741-3 0 9998 2 25544 51.6304 141.8664 0003245 240.6311 119.4354 15.49550036542873 CZ-4B R/B 1 25732U 99025C 25347.03121774 .00000135 00000+0 86342-4 0 9995 2 25732 98.6770 28.3047 0036286 233.1371 187.1325 14.18243701375886 OKEAN-O 1 25860U 99039A 25346.92477608 .00001207 00000+0 16588-3 0 9994 2 25860 97.9603 42.6248 0000805 98.2404 261.8899 14.80161911421555 SL-16 R/B 1 25861U 99039B 25346.91968058 .00001011 00000+0 13534-3 0 9999 2 25861 98.0127 41.0709 0014935 174.0304 186.1090 14.81587145424013 DELTA 2 R/B 1 25876U 99041E 25346.99689795 .00001886 00000+0 34283-3 0 9998 2 25876 51.7612 287.4192 0504695 92.5242 273.3543 14.11402013350785 HELIOS 1B 1 25977U 99064A 25346.66892967 .00003709 00000+0 41773-3 0 9994 2 25977 98.1751 241.3324 0001713 44.1765 315.9586 14.87283872672328 TERRA 1 25994U 99068A 25347.01860108 .00000785 00000+0 16957-3 0 9996 2 25994 97.9750 38.6929 0003604 93.9258 22.4022 14.60902488382427 SL-16 R/B 1 26070U 00006B 25346.96951225 -.00000122 00000+0 -37900-4 0 9999 2 26070 71.0032 280.1741 0018520 308.2240 51.7215 14.15810669336282 TITAN 4B R/B 1 26474U 00047B 25347.00819611 .00005832 00000+0 37195-3 0 9996 2 26474 67.9898 284.1013 0038866 144.0718 216.3056 15.08785021379837 ENVISAT 1 27386U 02009A 25346.90696968 .00000248 00000+0 94177-4 0 9995 2 27386 98.3600 297.6432 0001130 83.1345 345.5905 14.38999439246693 IDEFIX & ARIANE 42P R/B 1 27422U 02021B 25346.86293981 .00000509 00000+0 21009-3 0 9996 2 27422 98.5786 281.5522 0012949 83.3218 276.9438 14.30950591231605 AQUA 1 27424U 02022A 25347.03406664 .00001876 00000+0 38559-3 0 9999 2 27424 98.4037 307.9179 0001135 115.4509 318.2019 14.61810917256075 CZ-4B R/B 1 27432U 02024C 25347.00017203 .00000086 00000+0 67622-4 0 9990 2 27432 98.8999 35.7709 0049170 269.1566 156.6799 14.14527828216980 MIDORI II (ADEOS-II) 1 27597U 02056A 25346.92543692 .00000448 00000+0 19412-3 0 9998 2 27597 98.7636 299.8826 0000189 154.4021 205.7170 14.29205958197903 H-2A R/B 1 27601U 02056E 25346.95597412 .00000580 00000+0 21759-3 0 9990 2 27601 98.3065 305.7040 0071374 60.5030 340.7478 14.33676481201687 CZ-4B R/B 1 28059U 03049C 25346.93949053 .00000630 00000+0 15595-3 0 9998 2 28059 98.6789 333.5109 0049005 135.4954 225.0194 14.54909708173984 CZ-2C R/B 1 28222U 04012C 25346.99681271 .00050952 00000+0 73849-3 0 9990 2 28222 97.7426 39.6387 0016502 269.2958 90.6405 15.55549680190769 SL-16 R/B 1 28353U 04021B 25346.90437286 -.00000225 00000+0 -92530-4 0 9990 2 28353 71.0016 54.6200 0005276 200.1767 159.9147 14.14580585110568 CZ-4B R/B 1 28415U 04035C 25347.01998157 .00012070 00000+0 44632-3 0 9994 2 28415 97.3616 17.3601 0031534 276.4585 83.3064 15.27378492166673 CZ-2C R/B 1 28480U 04046B 25346.88884028 .00000346 00000+0 14313-3 0 9999 2 28480 98.1990 262.2574 0140475 51.8669 309.5078 14.26941073 96121 ARIANE 5 R/B 1 28499U 04049H 25346.98946578 .00001689 00000+0 19337-3 0 9994 2 28499 98.2521 147.2796 0083323 272.1478 87.0196 14.85012871132922 CZ-2D R/B 1 28738U 05024B 25346.97965609 .00037949 00000+0 60334-3 0 9990 2 28738 97.3643 354.4325 0005495 5.0180 355.1128 15.53207641126294 ALOS (DAICHI) 1 28931U 06002A 25346.89970487 .00002437 00000+0 41933-3 0 9991 2 28931 98.1092 298.3859 0001145 115.8389 244.2934 14.69489225 60738 H-2A R/B 1 28932U 06002B 25346.91750998 .00015131 00000+0 79335-3 0 9990 2 28932 98.2312 121.6802 0054466 175.7631 184.4071 15.14577426 81293 RESURS-DK 1 1 29228U 06021A 25346.76422980 .00004255 00000+0 25216-3 0 9994 2 29228 69.9331 101.7749 0007220 259.1692 100.8661 15.12161288 74389 CZ-4B R/B 1 29507U 06046C 25346.83512902 .00007310 00000+0 38020-3 0 9995 2 29507 97.5737 26.9730 0033272 206.0504 153.9056 15.15874401 46885 CZ-2C R/B 1 31114U 07010B 25346.93006544 .00000272 00000+0 14389-3 0 9997 2 31114 98.3975 99.5714 0058978 185.4522 174.6021 14.20210206967407 COSMO-SKYMED 1 1 31598U 07023A 25346.98887486 .00005807 00000+0 52596-3 0 9995 2 31598 97.8835 172.3895 0001232 88.6605 271.4757 14.95766931 1942 COSMOS 2428 1 31792U 07029A 25346.80916723 .00000128 00000+0 94649-4 0 9992 2 31792 70.9368 25.7343 0003673 23.4289 336.6998 14.12889805951823 SL-16 R/B 1 31793U 07029B 25347.02652806 -.00000034 00000+0 69520-5 0 9995 2 31793 70.9756 354.5550 0002150 262.1352 163.8443 14.14814754953112 KORONAS-FOTON 1 33504U 09003A 25347.01414633 .00016240 00000+0 38911-3 0 9997 2 33504 82.4315 5.8216 0013231 107.5053 252.7640 15.41193721932388 CZ-2C R/B 1 37731U 11030B 25346.86260971 .00002583 00000+0 33369-3 0 9999 2 37731 97.8410 300.9665 0051341 273.1841 140.5042 14.80903668777249 H-2A R/B 1 38341U 12025E 25346.97449519 .00005293 00000+0 48784-3 0 9999 2 38341 98.4602 302.2229 0043642 235.3250 124.3852 14.94456894735261 SHIJIAN-16 (SJ-16) 1 39358U 13057A 25347.00462878 .00002393 00000+0 23828-3 0 9992 2 39358 74.9734 349.1537 0017659 319.2095 40.7769 14.91987537658571 SL-4 R/B 1 39679U 14021B 25346.87595226 .00016572 00000+0 39200-3 0 9993 2 39679 51.6088 39.9315 0101708 146.6242 214.1207 15.36676627642914 ALOS-2 1 39766U 14029A 25346.54013808 .00004634 00000+0 62702-3 0 9992 2 39766 97.9217 81.3886 0001400 99.6977 260.4393 14.79474197623982 YAOGAN-29 1 41038U 15069A 25347.02204868 .00000928 00000+0 12118-3 0 9992 2 41038 98.0222 10.1945 0000172 314.4133 45.7066 14.82882755543033 ASTRO-H (HITOMI) 1 41337U 16012A 25346.95469155 .00005029 00000+0 30137-3 0 9994 2 41337 30.9982 195.9874 0009556 181.2825 178.7790 15.09355444539114 HXMT (HUIYAN) 1 42758U 17034A 25346.92259315 .00006833 00000+0 35450-3 0 9996 2 42758 43.0129 138.6134 0031465 44.5670 315.7700 15.16246317469365 CZ-2C R/B 1 43521U 18054D 25346.73464171 .00125353 00000+0 82666-3 0 9995 2 43521 35.1325 180.9341 0015322 144.1045 216.0720 15.74091686415054 SAOCOM 1A 1 43641U 18076A 25346.94194212 .00001093 00000+0 14385-3 0 9998 2 43641 97.8847 171.3610 0001462 81.3012 278.8366 14.82158705388516 H-2A R/B 1 43682U 18084L 25347.01792075 .00025756 00000+0 69549-3 0 9996 2 43682 98.8776 181.1543 0027291 325.5655 34.3816 15.37383341392440 SAOCOM 1B 1 46265U 20059A 25347.04069938 .00000827 00000+0 11041-3 0 9995 2 46265 97.8844 170.5589 0001299 81.6339 278.5021 14.82161588285915 CSS (TIANHE) 1 48274U 21035A 25346.97088639 .00026417 00000+0 33033-3 0 9990 2 48274 41.4684 15.3046 0008245 32.5257 327.6088 15.59178060264217 COSMOS 2550 1 48865U 21056A 25346.33480374 -.00000001 00000+0 57847-5 0 9994 2 48865 67.1456 305.1584 0008395 269.9074 90.1118 15.33834191250061 CZ-2C R/B 1 52794U 22058K 25346.87169998 .00031349 00000+0 56093-3 0 9996 2 52794 50.1911 42.8757 0045358 199.0535 160.8738 15.48513889196658 CZ-2C R/B 1 54039U 22132E 25346.99270521 .00046079 00000+0 68205-3 0 9995 2 54039 97.2950 343.1961 0023031 56.3445 304.0002 15.54840202176877 GSLV R/B 1 54149U 22138AN 25346.98954284 .00004648 00000+0 40832-3 0 9999 2 54149 87.3828 195.3905 0024120 104.6140 255.7768 14.96133196170964 XRISM 1 57800U 23137A 25346.70204490 .00007546 00000+0 44292-3 0 9997 2 57800 31.0009 125.7869 0007671 245.0619 114.9222 15.10341464124626 ACS3 1 59588U 24077B 25346.89842038 .00037925 00000+0 32355-1 0 9991 2 59588 97.2675 302.4695 0077421 337.8636 21.9188 13.85508780 82160 SZ-21 MODULE 1 66515U 25246C 25346.79490263 .00032837 00000+0 36065-3 0 9997 2 66515 41.4775 15.7097 0006306 260.6775 99.3351 15.62483203 4457